Year,Month,Day,Hour,Minute,Value (Times are PST for temperature in C)
2020,03,30,00,00,4.50
2020,03,30,00,01,4.50
2020,03,30,00,02,4.50
2020,03,30,00,03,4.50
2020,03,30,00,04,4.50
2020,03,30,00,05,4.50
2020,03,30,00,06,4.50
2020,03,30,00,07,4.50
2020,03,30,00,08,4.60
2020,03,30,00,09,4.50
2020,03,30,00,10,4.50
2020,03,30,00,11,4.50
2020,03,30,00,12,4.50
2020,03,30,00,13,4.50
2020,03,30,00,14,4.50
2020,03,30,00,15,4.50
2020,03,30,00,16,4.50
2020,03,30,00,17,4.60
2020,03,30,00,18,4.60
2020,03,30,00,19,4.60
2020,03,30,00,20,4.60
2020,03,30,00,21,4.60
2020,03,30,00,22,4.60
2020,03,30,00,23,4.60
2020,03,30,00,24,4.60
2020,03,30,00,25,4.60
2020,03,30,00,26,4.60
2020,03,30,00,27,4.60
2020,03,30,00,28,4.60
2020,03,30,00,29,4.60
2020,03,30,00,30,4.50
2020,03,30,00,31,4.50
2020,03,30,00,32,4.50
2020,03,30,00,33,4.50
2020,03,30,00,34,4.50
2020,03,30,00,35,4.50
2020,03,30,00,36,4.50
2020,03,30,00,37,4.50
2020,03,30,00,38,4.50
2020,03,30,00,39,4.50
2020,03,30,00,40,4.50
2020,03,30,00,41,4.50
2020,03,30,00,42,4.50
2020,03,30,00,43,4.50
2020,03,30,00,44,4.50
2020,03,30,00,45,4.40
2020,03,30,00,46,4.40
2020,03,30,00,47,4.40
2020,03,30,00,48,4.40
2020,03,30,00,49,4.40
2020,03,30,00,50,4.40
2020,03,30,00,51,4.30
2020,03,30,00,52,4.30
2020,03,30,00,53,4.30
2020,03,30,00,54,4.30
2020,03,30,00,55,4.30
2020,03,30,00,56,4.30
2020,03,30,00,57,4.30
2020,03,30,00,58,4.30
2020,03,30,00,59,4.30
2020,03,30,01,00,4.30
2020,03,30,01,01,4.30
2020,03,30,01,02,4.30
2020,03,30,01,03,4.30
2020,03,30,01,04,4.30
2020,03,30,01,05,4.30
2020,03,30,01,06,4.30
2020,03,30,01,07,4.30
2020,03,30,01,08,4.30
2020,03,30,01,09,4.30
2020,03,30,01,10,4.30
2020,03,30,01,11,4.30
2020,03,30,01,12,4.30
2020,03,30,01,13,4.30
2020,03,30,01,14,4.30
2020,03,30,01,15,4.30
2020,03,30,01,16,4.30
2020,03,30,01,17,4.30
2020,03,30,01,18,4.30
2020,03,30,01,19,4.30
2020,03,30,01,20,4.30
2020,03,30,01,21,4.30
2020,03,30,01,22,4.30
2020,03,30,01,23,4.30
2020,03,30,01,24,4.30
2020,03,30,01,25,4.30
2020,03,30,01,26,4.20
2020,03,30,01,27,4.20
2020,03,30,01,28,4.20
2020,03,30,01,29,4.20
2020,03,30,01,30,4.20
2020,03,30,01,31,4.20
2020,03,30,01,32,4.20
2020,03,30,01,33,4.20
2020,03,30,01,34,4.20
2020,03,30,01,35,4.20
2020,03,30,01,36,4.20
2020,03,30,01,37,4.20
2020,03,30,01,38,4.20
2020,03,30,01,39,4.20
2020,03,30,01,40,4.20
2020,03,30,01,41,4.20
2020,03,30,01,42,4.20
2020,03,30,01,43,4.20
2020,03,30,01,44,4.20
2020,03,30,01,45,4.20
2020,03,30,01,46,4.20
2020,03,30,01,47,4.20
2020,03,30,01,48,4.20
2020,03,30,01,49,4.20
2020,03,30,01,50,4.20
2020,03,30,01,51,4.20
2020,03,30,01,52,4.20
2020,03,30,01,53,4.20
2020,03,30,01,54,4.20
2020,03,30,01,55,4.20
2020,03,30,01,56,4.10
2020,03,30,01,57,4.10
2020,03,30,01,58,4.10
2020,03,30,01,59,4.10
2020,03,30,02,00,4.10
2020,03,30,02,01,4.10
2020,03,30,02,02,4.10
2020,03,30,02,03,4.10
2020,03,30,02,04,4.10
2020,03,30,02,05,4.10
2020,03,30,02,06,4.10
2020,03,30,02,07,4.10
2020,03,30,02,08,4.10
2020,03,30,02,09,4.10
2020,03,30,02,10,4.10
2020,03,30,02,11,4.10
2020,03,30,02,12,4.10
2020,03,30,02,13,4.10
2020,03,30,02,14,4.10
2020,03,30,02,15,4.10
2020,03,30,02,16,4.10
2020,03,30,02,17,4.10
2020,03,30,02,18,4.10
2020,03,30,02,19,4.10
2020,03,30,02,20,4.10
2020,03,30,02,21,4.10
2020,03,30,02,22,4.10
2020,03,30,02,23,4.10
2020,03,30,02,24,4.10
2020,03,30,02,25,4.10
2020,03,30,02,26,4.10
2020,03,30,02,27,4.00
2020,03,30,02,28,4.00
2020,03,30,02,29,4.00
2020,03,30,02,30,4.00
2020,03,30,02,31,3.90
2020,03,30,02,32,3.90
2020,03,30,02,33,3.90
2020,03,30,02,34,3.90
2020,03,30,02,35,3.80
2020,03,30,02,36,3.80
2020,03,30,02,37,3.80
2020,03,30,02,38,3.70
2020,03,30,02,39,3.70
2020,03,30,02,40,3.60
2020,03,30,02,41,3.50
2020,03,30,02,42,3.50
2020,03,30,02,43,3.40
2020,03,30,02,44,3.40
2020,03,30,02,45,3.40
2020,03,30,02,46,3.30
2020,03,30,02,47,3.30
2020,03,30,02,48,3.20
2020,03,30,02,49,3.20
2020,03,30,02,50,3.20
2020,03,30,02,51,3.10
2020,03,30,02,52,3.10
2020,03,30,02,53,3.00
2020,03,30,02,54,3.00
2020,03,30,02,55,3.00
2020,03,30,02,56,2.90
2020,03,30,02,57,2.90
2020,03,30,02,58,2.90
2020,03,30,02,59,2.90
2020,03,30,03,00,2.80
2020,03,30,03,01,2.80
2020,03,30,03,02,2.80
2020,03,30,03,03,2.80
2020,03,30,03,04,2.80
2020,03,30,03,05,2.80
2020,03,30,03,06,2.80
2020,03,30,03,07,2.80
2020,03,30,03,08,2.80
2020,03,30,03,09,2.80
2020,03,30,03,10,2.80
2020,03,30,03,11,2.90
2020,03,30,03,12,2.90
2020,03,30,03,13,3.00
2020,03,30,03,14,3.00
2020,03,30,03,15,3.10
2020,03,30,03,16,3.10
2020,03,30,03,17,3.20
2020,03,30,03,18,3.20
2020,03,30,03,19,3.30
2020,03,30,03,20,3.30
2020,03,30,03,21,3.30
2020,03,30,03,22,3.30
2020,03,30,03,23,3.30
2020,03,30,03,24,3.30
2020,03,30,03,25,3.30
2020,03,30,03,26,3.30
2020,03,30,03,27,3.30
2020,03,30,03,28,3.30
2020,03,30,03,29,3.30
2020,03,30,03,30,3.30
2020,03,30,03,31,3.30
2020,03,30,03,32,3.30
2020,03,30,03,33,3.30
2020,03,30,03,34,3.20
2020,03,30,03,35,3.20
2020,03,30,03,36,3.20
2020,03,30,03,37,3.20
2020,03,30,03,38,3.20
2020,03,30,03,39,3.20
2020,03,30,03,40,3.20
2020,03,30,03,41,3.20
2020,03,30,03,42,3.20
2020,03,30,03,43,3.20
2020,03,30,03,44,3.20
2020,03,30,03,45,3.20
2020,03,30,03,46,3.20
2020,03,30,03,47,3.20
2020,03,30,03,48,3.20
2020,03,30,03,49,3.20
2020,03,30,03,50,3.20
2020,03,30,03,51,3.10
2020,03,30,03,52,3.10
2020,03,30,03,53,3.10
2020,03,30,03,54,3.10
2020,03,30,03,55,3.10
2020,03,30,03,56,3.10
2020,03,30,03,57,3.00
2020,03,30,03,58,3.00
2020,03,30,03,59,3.00
2020,03,30,04,00,2.90
2020,03,30,04,01,2.80
2020,03,30,04,02,2.70
2020,03,30,04,03,2.60
2020,03,30,04,04,2.50
2020,03,30,04,05,2.40
2020,03,30,04,06,2.40
2020,03,30,04,07,2.30
2020,03,30,04,08,2.30
2020,03,30,04,09,2.30
2020,03,30,04,10,2.30
2020,03,30,04,11,2.30
2020,03,30,04,12,2.30
2020,03,30,04,13,2.30
2020,03,30,04,14,2.30
2020,03,30,04,15,2.30
2020,03,30,04,16,2.30
2020,03,30,04,17,2.30
2020,03,30,04,18,2.30
2020,03,30,04,19,2.30
2020,03,30,04,20,2.40
2020,03,30,04,21,2.40
2020,03,30,04,22,2.50
2020,03,30,04,23,2.50
2020,03,30,04,24,2.50
2020,03,30,04,25,2.50
2020,03,30,04,26,2.40
2020,03,30,04,27,2.30
2020,03,30,04,28,2.30
2020,03,30,04,29,2.30
2020,03,30,04,30,2.30
2020,03,30,04,31,2.30
2020,03,30,04,32,2.30
2020,03,30,04,33,2.30
2020,03,30,04,34,2.30
2020,03,30,04,35,2.30
2020,03,30,04,36,2.30
2020,03,30,04,37,2.30
2020,03,30,04,38,2.40
2020,03,30,04,39,2.50
2020,03,30,04,40,2.60
2020,03,30,04,41,2.60
2020,03,30,04,42,2.70
2020,03,30,04,43,2.70
2020,03,30,04,44,2.80
2020,03,30,04,45,2.80
2020,03,30,04,46,2.90
2020,03,30,04,47,2.90
2020,03,30,04,48,2.90
2020,03,30,04,49,3.00
2020,03,30,04,50,3.00
2020,03,30,04,51,3.00
2020,03,30,04,52,3.00
2020,03,30,04,53,3.00
2020,03,30,04,54,3.10
2020,03,30,04,55,3.10
2020,03,30,04,56,3.10
2020,03,30,04,57,3.10
2020,03,30,04,58,3.20
2020,03,30,04,59,3.20
2020,03,30,05,00,3.20
2020,03,30,05,01,3.20
2020,03,30,05,02,3.20
2020,03,30,05,03,3.20
2020,03,30,05,04,3.20
2020,03,30,05,05,3.20
2020,03,30,05,06,3.20
2020,03,30,05,07,3.20
2020,03,30,05,08,3.20
2020,03,30,05,09,3.20
2020,03,30,05,10,3.20
2020,03,30,05,11,3.20
2020,03,30,05,12,3.20
2020,03,30,05,13,3.20
2020,03,30,05,14,3.20
2020,03,30,05,15,3.20
2020,03,30,05,16,3.20
2020,03,30,05,17,3.10
2020,03,30,05,18,3.10
2020,03,30,05,19,3.10
2020,03,30,05,20,3.00
2020,03,30,05,21,3.00
2020,03,30,05,22,2.90
2020,03,30,05,23,2.90
2020,03,30,05,24,2.80
2020,03,30,05,25,2.80
2020,03,30,05,26,2.80
2020,03,30,05,27,2.70
2020,03,30,05,28,2.70
2020,03,30,05,29,2.70
2020,03,30,05,30,2.70
2020,03,30,05,31,2.80
2020,03,30,05,32,2.90
2020,03,30,05,33,3.10
2020,03,30,05,34,3.20
2020,03,30,05,35,3.40
2020,03,30,05,36,3.60
2020,03,30,05,37,3.70
2020,03,30,05,38,3.80
2020,03,30,05,39,3.80
2020,03,30,05,40,3.90
2020,03,30,05,41,3.90
2020,03,30,05,42,3.90
2020,03,30,05,43,4.00
2020,03,30,05,44,4.10
2020,03,30,05,45,4.20
2020,03,30,05,46,4.30
2020,03,30,05,47,4.30
2020,03,30,05,48,4.20
2020,03,30,05,49,4.20
2020,03,30,05,50,4.20
2020,03,30,05,51,4.10
2020,03,30,05,52,4.10
2020,03,30,05,53,4.10
2020,03,30,05,54,4.10
2020,03,30,05,55,4.10
2020,03,30,05,56,4.10
2020,03,30,05,57,4.10
2020,03,30,05,58,4.00
2020,03,30,05,59,4.00
2020,03,30,06,00,4.00
2020,03,30,06,01,4.00
2020,03,30,06,02,3.90
2020,03,30,06,03,4.00
2020,03,30,06,04,4.00
2020,03,30,06,05,4.00
2020,03,30,06,06,4.00
2020,03,30,06,07,3.90
2020,03,30,06,08,3.90
2020,03,30,06,09,3.90
2020,03,30,06,10,3.80
2020,03,30,06,11,3.80
2020,03,30,06,12,3.80
2020,03,30,06,13,3.80
2020,03,30,06,14,3.80
2020,03,30,06,15,3.70
2020,03,30,06,16,3.70
2020,03,30,06,17,3.70
2020,03,30,06,18,3.70
2020,03,30,06,19,3.70
2020,03,30,06,20,3.60
2020,03,30,06,21,3.70
2020,03,30,06,22,3.70
2020,03,30,06,23,3.70
2020,03,30,06,24,3.70
2020,03,30,06,25,3.80
2020,03,30,06,26,3.80
2020,03,30,06,27,3.80
2020,03,30,06,28,3.80
2020,03,30,06,29,3.80
2020,03,30,06,30,3.70
2020,03,30,06,31,3.70
2020,03,30,06,32,3.70
2020,03,30,06,33,3.70
2020,03,30,06,34,3.70
2020,03,30,06,35,3.80
2020,03,30,06,36,3.90
2020,03,30,06,37,3.90
2020,03,30,06,38,3.90
2020,03,30,06,39,3.90
2020,03,30,06,40,3.90
2020,03,30,06,41,3.90
2020,03,30,06,42,3.90
2020,03,30,06,43,3.90
2020,03,30,06,44,4.00
2020,03,30,06,45,4.00
2020,03,30,06,46,4.10
2020,03,30,06,47,4.10
2020,03,30,06,48,4.00
2020,03,30,06,49,4.00
2020,03,30,06,50,4.00
2020,03,30,06,51,4.00
2020,03,30,06,52,4.00
2020,03,30,06,53,4.00
2020,03,30,06,54,4.00
2020,03,30,06,55,4.00
2020,03,30,06,56,4.00
2020,03,30,06,57,4.00
2020,03,30,06,58,3.90
2020,03,30,06,59,3.90
2020,03,30,07,00,3.80
2020,03,30,07,01,3.80
2020,03,30,07,02,3.90
2020,03,30,07,03,3.90
2020,03,30,07,04,4.00
2020,03,30,07,05,4.00
2020,03,30,07,06,4.00
2020,03,30,07,07,4.10
2020,03,30,07,08,4.10
2020,03,30,07,09,4.10
2020,03,30,07,10,4.10
2020,03,30,07,11,4.10
2020,03,30,07,12,4.10
2020,03,30,07,13,4.10
2020,03,30,07,14,4.20
2020,03,30,07,15,4.20
2020,03,30,07,16,4.20
2020,03,30,07,17,4.20
2020,03,30,07,18,4.20
2020,03,30,07,19,4.20
2020,03,30,07,20,4.20
2020,03,30,07,21,4.20
2020,03,30,07,22,4.20
2020,03,30,07,23,4.20
2020,03,30,07,24,4.10
2020,03,30,07,25,4.10
2020,03,30,07,26,4.10
2020,03,30,07,27,4.10
2020,03,30,07,28,4.20
2020,03,30,07,29,4.20
2020,03,30,07,30,4.20
2020,03,30,07,31,4.20
2020,03,30,07,32,4.20
2020,03,30,07,33,4.30
2020,03,30,07,34,4.30
2020,03,30,07,35,4.30
2020,03,30,07,36,4.30
2020,03,30,07,37,4.30
2020,03,30,07,38,4.30
2020,03,30,07,39,4.20
2020,03,30,07,40,4.10
2020,03,30,07,41,4.00
2020,03,30,07,42,3.90
2020,03,30,07,43,3.80
2020,03,30,07,44,3.80
2020,03,30,07,45,3.70
2020,03,30,07,46,3.70
2020,03,30,07,47,3.60
2020,03,30,07,48,3.60
2020,03,30,07,49,3.50
2020,03,30,07,50,3.50
2020,03,30,07,51,3.50
2020,03,30,07,52,3.40
2020,03,30,07,53,3.40
2020,03,30,07,54,3.40
2020,03,30,07,55,3.30
2020,03,30,07,56,3.30
2020,03,30,07,57,3.30
2020,03,30,07,58,3.20
2020,03,30,07,59,3.20
2020,03,30,08,00,3.20
2020,03,30,08,01,3.20
2020,03,30,08,02,3.30
2020,03,30,08,03,3.30
2020,03,30,08,04,3.40
2020,03,30,08,05,3.50
2020,03,30,08,06,3.50
2020,03,30,08,07,3.60
2020,03,30,08,08,3.60
2020,03,30,08,09,3.60
2020,03,30,08,10,3.60
2020,03,30,08,11,3.60
2020,03,30,08,12,3.60
2020,03,30,08,13,3.60
2020,03,30,08,14,3.60
2020,03,30,08,15,3.60
2020,03,30,08,16,3.60
2020,03,30,08,17,3.60
2020,03,30,08,18,3.60
2020,03,30,08,19,3.60
2020,03,30,08,20,3.60
2020,03,30,08,21,3.50
2020,03,30,08,22,3.40
2020,03,30,08,23,3.40
2020,03,30,08,24,3.30
2020,03,30,08,25,3.30
2020,03,30,08,26,3.20
2020,03,30,08,27,3.20
2020,03,30,08,28,3.10
2020,03,30,08,29,3.00
2020,03,30,08,30,3.00
2020,03,30,08,31,2.90
2020,03,30,08,32,2.90
2020,03,30,08,33,2.90
2020,03,30,08,34,2.80
2020,03,30,08,35,2.80
2020,03,30,08,36,2.80
2020,03,30,08,37,2.80
2020,03,30,08,38,2.80
2020,03,30,08,39,2.80
2020,03,30,08,40,2.80
2020,03,30,08,41,2.80
2020,03,30,08,42,2.80
2020,03,30,08,43,2.70
2020,03,30,08,44,2.70
2020,03,30,08,45,2.70
2020,03,30,08,46,2.70
2020,03,30,08,47,2.80
2020,03,30,08,48,2.80
2020,03,30,08,49,2.80
2020,03,30,08,50,2.90
2020,03,30,08,51,3.00
2020,03,30,08,52,3.10
2020,03,30,08,53,3.30
2020,03,30,08,54,3.40
2020,03,30,08,55,3.50
2020,03,30,08,56,3.60
2020,03,30,08,57,3.60
2020,03,30,08,58,3.70
2020,03,30,08,59,3.70
2020,03,30,09,00,3.80
2020,03,30,09,01,3.80
2020,03,30,09,02,3.80
2020,03,30,09,03,3.90
2020,03,30,09,04,3.90
2020,03,30,09,05,3.90
2020,03,30,09,06,3.90
2020,03,30,09,07,3.90
2020,03,30,09,08,3.90
2020,03,30,09,09,3.90
2020,03,30,09,10,3.90
2020,03,30,09,11,3.90
2020,03,30,09,12,3.90
2020,03,30,09,13,3.90
2020,03,30,09,14,3.90
2020,03,30,09,15,3.90
2020,03,30,09,16,3.90
2020,03,30,09,17,4.00
2020,03,30,09,18,4.10
2020,03,30,09,19,4.00
2020,03,30,09,20,4.10
2020,03,30,09,21,4.10
2020,03,30,09,22,4.20
2020,03,30,09,23,4.30
2020,03,30,09,24,4.40
2020,03,30,09,25,4.50
2020,03,30,09,26,4.60
2020,03,30,09,27,4.60
2020,03,30,09,28,4.70
2020,03,30,09,29,4.70
2020,03,30,09,30,4.80
2020,03,30,09,31,4.80
2020,03,30,09,32,4.80
2020,03,30,09,33,4.90
2020,03,30,09,34,4.90
2020,03,30,09,35,5.00
2020,03,30,09,36,5.10
2020,03,30,09,37,5.10
2020,03,30,09,38,5.10
2020,03,30,09,39,5.20
2020,03,30,09,40,5.20
2020,03,30,09,41,5.20
2020,03,30,09,42,5.20
2020,03,30,09,43,5.20
2020,03,30,09,44,5.20
2020,03,30,09,45,5.20
2020,03,30,09,46,5.30
2020,03,30,09,47,5.30
2020,03,30,09,48,5.30
2020,03,30,09,49,5.30
2020,03,30,09,50,5.30
2020,03,30,09,51,5.30
2020,03,30,09,52,5.30
2020,03,30,09,53,5.30
2020,03,30,09,54,5.30
2020,03,30,09,55,5.30
2020,03,30,09,56,5.30
2020,03,30,09,57,5.40
2020,03,30,09,58,5.40
2020,03,30,09,59,5.50
2020,03,30,10,00,5.60
2020,03,30,10,01,5.70
2020,03,30,10,02,5.80
2020,03,30,10,03,5.90
2020,03,30,10,04,6.00
2020,03,30,10,05,6.10
2020,03,30,10,06,6.10
2020,03,30,10,07,6.10
2020,03,30,10,08,6.00
2020,03,30,10,09,6.00
2020,03,30,10,10,5.90
2020,03,30,10,11,5.90
2020,03,30,10,12,5.90
2020,03,30,10,13,5.90
2020,03,30,10,14,5.80
2020,03,30,10,15,5.80
2020,03,30,10,16,5.80
2020,03,30,10,17,5.70
2020,03,30,10,18,5.70
2020,03,30,10,19,5.70
2020,03,30,10,20,5.70
2020,03,30,10,21,5.70
2020,03,30,10,22,5.70
2020,03,30,10,23,5.70
2020,03,30,10,24,5.60
2020,03,30,10,25,5.60
2020,03,30,10,26,5.60
2020,03,30,10,27,5.60
2020,03,30,10,28,5.50
2020,03,30,10,29,5.50
2020,03,30,10,30,5.40
2020,03,30,10,31,5.40
2020,03,30,10,32,5.40
2020,03,30,10,33,5.40
2020,03,30,10,34,5.40
2020,03,30,10,35,5.40
2020,03,30,10,36,5.40
2020,03,30,10,37,5.40
2020,03,30,10,38,5.40
2020,03,30,10,39,5.40
2020,03,30,10,40,5.40
2020,03,30,10,41,5.40
2020,03,30,10,42,5.40
2020,03,30,10,43,5.40
2020,03,30,10,44,5.40
2020,03,30,10,45,5.40
2020,03,30,10,46,5.30
2020,03,30,10,47,5.30
2020,03,30,10,48,5.30
2020,03,30,10,49,5.30
2020,03,30,10,50,5.30
2020,03,30,10,51,5.30
2020,03,30,10,52,5.30
2020,03,30,10,53,5.30
2020,03,30,10,54,5.30
2020,03,30,10,55,5.40
2020,03,30,10,56,5.40
2020,03,30,10,57,5.50
2020,03,30,10,58,5.50
2020,03,30,10,59,5.50
2020,03,30,11,00,5.60
2020,03,30,11,01,5.60
2020,03,30,11,02,5.60
2020,03,30,11,03,5.60
2020,03,30,11,04,5.70
2020,03,30,11,05,5.70
2020,03,30,11,06,5.70
2020,03,30,11,07,5.80
2020,03,30,11,08,5.80
2020,03,30,11,09,5.80
2020,03,30,11,10,5.90
2020,03,30,11,11,5.90
2020,03,30,11,12,6.00
2020,03,30,11,13,6.00
2020,03,30,11,14,6.00
2020,03,30,11,15,6.00
2020,03,30,11,16,6.00
2020,03,30,11,17,6.00
2020,03,30,11,18,6.00
2020,03,30,11,19,6.10
2020,03,30,11,20,6.10
2020,03,30,11,21,6.10
2020,03,30,11,22,6.10
2020,03,30,11,23,6.10
2020,03,30,11,24,6.10
2020,03,30,11,25,6.20
2020,03,30,11,26,6.20
2020,03,30,11,27,6.20
2020,03,30,11,28,6.30
2020,03,30,11,29,6.30
2020,03,30,11,30,6.40
2020,03,30,11,31,6.40
2020,03,30,11,32,6.50
2020,03,30,11,33,6.50
2020,03,30,11,34,6.50
2020,03,30,11,35,6.60
2020,03,30,11,36,6.60
2020,03,30,11,37,6.60
2020,03,30,11,38,6.60
2020,03,30,11,39,6.60
2020,03,30,11,40,6.60
2020,03,30,11,41,6.60
2020,03,30,11,42,6.60
2020,03,30,11,43,6.60
2020,03,30,11,44,6.60
2020,03,30,11,45,6.50
2020,03,30,11,46,6.50
2020,03,30,11,47,6.50
2020,03,30,11,48,6.50
2020,03,30,11,49,6.50
2020,03,30,11,50,6.50
2020,03,30,11,51,6.60
2020,03,30,11,52,6.60
2020,03,30,11,53,6.60
2020,03,30,11,54,6.70
2020,03,30,11,55,6.70
2020,03,30,11,56,6.80
2020,03,30,11,57,6.80
2020,03,30,11,58,7.00
2020,03,30,11,59,7.10
2020,03,30,12,00,7.20
2020,03,30,12,01,7.30
2020,03,30,12,02,7.40
2020,03,30,12,03,7.40
2020,03,30,12,04,7.50
2020,03,30,12,05,7.50
2020,03,30,12,06,7.50
2020,03,30,12,07,7.60
2020,03,30,12,08,7.60
2020,03,30,12,09,7.60
2020,03,30,12,10,7.70
2020,03,30,12,11,7.70
2020,03,30,12,12,7.70
2020,03,30,12,13,7.80
2020,03,30,12,14,7.90
2020,03,30,12,15,8.00
2020,03,30,12,16,8.10
2020,03,30,12,17,8.00
2020,03,30,12,18,8.00
2020,03,30,12,19,8.00
2020,03,30,12,20,8.10
2020,03,30,12,21,8.00
2020,03,30,12,22,8.00
2020,03,30,12,23,8.00
2020,03,30,12,24,8.00
2020,03,30,12,25,8.10
2020,03,30,12,26,8.00
2020,03,30,12,27,7.90
2020,03,30,12,28,7.90
2020,03,30,12,29,7.90
2020,03,30,12,30,7.90
2020,03,30,12,31,7.90
2020,03,30,12,32,8.00
2020,03,30,12,33,8.10
2020,03,30,12,34,8.20
2020,03,30,12,35,8.30
2020,03,30,12,36,8.30
2020,03,30,12,37,8.40
2020,03,30,12,38,8.40
2020,03,30,12,39,8.40
2020,03,30,12,40,8.40
2020,03,30,12,41,8.40
2020,03,30,12,42,8.50
2020,03,30,12,43,8.50
2020,03,30,12,44,8.50
2020,03,30,12,45,8.50
2020,03,30,12,46,8.60
2020,03,30,12,47,8.60
2020,03,30,12,48,8.60
2020,03,30,12,49,8.60
2020,03,30,12,50,8.50
2020,03,30,12,51,8.40
2020,03,30,12,52,8.30
2020,03,30,12,53,8.20
2020,03,30,12,54,8.10
2020,03,30,12,55,8.00
2020,03,30,12,56,8.00
2020,03,30,12,57,8.00
2020,03,30,12,58,8.00
2020,03,30,12,59,8.00
2020,03,30,13,00,7.90
2020,03,30,13,01,7.90
2020,03,30,13,02,7.90
2020,03,30,13,03,7.90
2020,03,30,13,04,7.90
2020,03,30,13,05,7.80
2020,03,30,13,06,7.80
2020,03,30,13,07,7.90
2020,03,30,13,08,7.90
2020,03,30,13,09,7.90
2020,03,30,13,10,7.90
2020,03,30,13,11,7.90
2020,03,30,13,12,7.90
2020,03,30,13,13,7.90
2020,03,30,13,14,7.80
2020,03,30,13,15,7.80
2020,03,30,13,16,7.80
2020,03,30,13,17,7.80
2020,03,30,13,18,7.80
2020,03,30,13,19,7.80
2020,03,30,13,20,7.90
2020,03,30,13,21,7.90
2020,03,30,13,22,7.90
2020,03,30,13,23,7.90
2020,03,30,13,24,7.80
2020,03,30,13,25,7.80
2020,03,30,13,26,7.80
2020,03,30,13,27,7.80
2020,03,30,13,28,7.80
2020,03,30,13,29,7.80
2020,03,30,13,30,7.80
2020,03,30,13,31,7.70
2020,03,30,13,32,7.70
2020,03,30,13,33,7.60
2020,03,30,13,34,7.60
2020,03,30,13,35,7.60
2020,03,30,13,36,7.60
2020,03,30,13,37,7.60
2020,03,30,13,38,7.60
2020,03,30,13,39,7.60
2020,03,30,13,40,7.60
2020,03,30,13,41,7.60
2020,03,30,13,42,7.60
2020,03,30,13,43,7.70
2020,03,30,13,44,7.70
2020,03,30,13,45,7.70
2020,03,30,13,46,7.70
2020,03,30,13,47,7.70
2020,03,30,13,48,7.70
2020,03,30,13,49,7.70
2020,03,30,13,50,7.70
2020,03,30,13,51,7.70
2020,03,30,13,52,7.70
2020,03,30,13,53,7.70
2020,03,30,13,54,7.70
2020,03,30,13,55,7.70
2020,03,30,13,56,7.80
2020,03,30,13,57,7.80
2020,03,30,13,58,7.90
2020,03,30,13,59,8.00
2020,03,30,14,00,8.10
2020,03,30,14,01,8.20
2020,03,30,14,02,8.30
2020,03,30,14,03,8.30
2020,03,30,14,04,8.40
2020,03,30,14,05,8.40
2020,03,30,14,06,8.40
2020,03,30,14,07,8.40
2020,03,30,14,08,8.40
2020,03,30,14,09,8.50
2020,03,30,14,10,8.50
2020,03,30,14,11,8.50
2020,03,30,14,12,8.40
2020,03,30,14,13,8.30
2020,03,30,14,14,8.20
2020,03,30,14,15,8.20
2020,03,30,14,16,8.20
2020,03,30,14,17,8.20
2020,03,30,14,18,8.20
2020,03,30,14,19,8.30
2020,03,30,14,20,8.30
2020,03,30,14,21,8.30
2020,03,30,14,22,8.30
2020,03,30,14,23,8.30
2020,03,30,14,24,8.30
2020,03,30,14,25,8.30
2020,03,30,14,26,8.30
2020,03,30,14,27,8.30
2020,03,30,14,28,8.30
2020,03,30,14,29,8.30
2020,03,30,14,30,8.30
2020,03,30,14,31,8.30
2020,03,30,14,32,8.40
2020,03,30,14,33,8.40
2020,03,30,14,34,8.50
2020,03,30,14,35,8.60
2020,03,30,14,36,8.60
2020,03,30,14,37,8.70
2020,03,30,14,38,8.70
2020,03,30,14,39,8.80
2020,03,30,14,40,8.80
2020,03,30,14,41,8.70
2020,03,30,14,42,8.60
2020,03,30,14,43,8.50
2020,03,30,14,44,8.40
2020,03,30,14,45,8.40
2020,03,30,14,46,8.40
2020,03,30,14,47,8.30
2020,03,30,14,48,8.40
2020,03,30,14,49,8.40
2020,03,30,14,50,8.40
2020,03,30,14,51,8.50
2020,03,30,14,52,8.50
2020,03,30,14,53,8.50
2020,03,30,14,54,8.40
2020,03,30,14,55,8.40
2020,03,30,14,56,8.40
2020,03,30,14,57,8.50
2020,03,30,14,58,8.50
2020,03,30,14,59,8.60
2020,03,30,15,00,8.70
2020,03,30,15,01,8.80
2020,03,30,15,02,9.00
2020,03,30,15,03,9.10
2020,03,30,15,04,9.20
2020,03,30,15,05,9.30
2020,03,30,15,06,9.30
2020,03,30,15,07,9.30
2020,03,30,15,08,9.20
2020,03,30,15,09,9.20
2020,03,30,15,10,9.20
2020,03,30,15,11,9.20
2020,03,30,15,12,9.30
2020,03,30,15,13,9.30
2020,03,30,15,14,9.30
2020,03,30,15,15,9.30
2020,03,30,15,16,9.40
2020,03,30,15,17,9.40
2020,03,30,15,18,9.50
2020,03,30,15,19,9.60
2020,03,30,15,20,9.70
2020,03,30,15,21,9.80
2020,03,30,15,22,9.80
2020,03,30,15,23,9.80
2020,03,30,15,24,9.80
2020,03,30,15,25,9.80
2020,03,30,15,26,9.90
2020,03,30,15,27,9.90
2020,03,30,15,28,9.80
2020,03,30,15,29,9.70
2020,03,30,15,30,9.70
2020,03,30,15,31,9.60
2020,03,30,15,32,9.60
2020,03,30,15,33,9.70
2020,03,30,15,34,9.70
2020,03,30,15,35,9.70
2020,03,30,15,36,9.70
2020,03,30,15,37,9.80
2020,03,30,15,38,9.80
2020,03,30,15,39,9.70
2020,03,30,15,40,9.40
2020,03,30,15,41,9.10
2020,03,30,15,42,8.90
2020,03,30,15,43,8.80
2020,03,30,15,44,8.80
2020,03,30,15,45,8.80
2020,03,30,15,46,8.90
2020,03,30,15,47,8.90
2020,03,30,15,48,8.90
2020,03,30,15,49,8.90
2020,03,30,15,50,8.90
2020,03,30,15,51,8.90
2020,03,30,15,52,8.90
2020,03,30,15,53,9.00
2020,03,30,15,54,9.00
2020,03,30,15,55,9.00
2020,03,30,15,56,9.00
2020,03,30,15,57,9.10
2020,03,30,15,58,9.10
2020,03,30,15,59,9.10
2020,03,30,16,00,9.10
2020,03,30,16,01,9.00
2020,03,30,16,02,9.00
2020,03,30,16,03,9.10
2020,03,30,16,04,9.10
2020,03,30,16,05,9.10
2020,03,30,16,06,9.10
2020,03,30,16,07,9.00
2020,03,30,16,08,9.00
2020,03,30,16,09,9.00
2020,03,30,16,10,9.00
2020,03,30,16,11,9.00
2020,03,30,16,12,9.00
2020,03,30,16,13,8.90
2020,03,30,16,14,8.90
2020,03,30,16,15,8.90
2020,03,30,16,16,8.80
2020,03,30,16,17,8.80
2020,03,30,16,18,8.90
2020,03,30,16,19,9.00
2020,03,30,16,20,9.10
2020,03,30,16,21,9.10
2020,03,30,16,22,9.10
2020,03,30,16,23,9.20
2020,03,30,16,24,9.10
2020,03,30,16,25,9.00
2020,03,30,16,26,8.90
2020,03,30,16,27,8.90
2020,03,30,16,28,8.80
2020,03,30,16,29,8.80
2020,03,30,16,30,8.80
2020,03,30,16,31,8.80
2020,03,30,16,32,8.80
2020,03,30,16,33,8.80
2020,03,30,16,34,8.90
2020,03,30,16,35,8.90
2020,03,30,16,36,8.90
2020,03,30,16,37,8.80
2020,03,30,16,38,8.80
2020,03,30,16,39,8.70
2020,03,30,16,40,8.60
2020,03,30,16,41,8.60
2020,03,30,16,42,8.50
2020,03,30,16,43,8.50
2020,03,30,16,44,8.50
2020,03,30,16,45,8.50
2020,03,30,16,46,8.50
2020,03,30,16,47,8.60
2020,03,30,16,48,8.60
2020,03,30,16,49,8.70
2020,03,30,16,50,8.70
2020,03,30,16,51,8.70
2020,03,30,16,52,8.70
2020,03,30,16,53,8.70
2020,03,30,16,54,8.60
2020,03,30,16,55,8.50
2020,03,30,16,56,8.30
2020,03,30,16,57,8.30
2020,03,30,16,58,8.20
2020,03,30,16,59,8.10
2020,03,30,17,00,8.10
2020,03,30,17,01,7.90
2020,03,30,17,02,7.80
2020,03,30,17,03,7.70
2020,03,30,17,04,7.70
2020,03,30,17,05,7.60
2020,03,30,17,06,7.50
2020,03,30,17,07,7.40
2020,03,30,17,08,7.30
2020,03,30,17,09,7.30
2020,03,30,17,10,7.10
2020,03,30,17,11,7.10
2020,03,30,17,12,7.00
2020,03,30,17,13,7.00
2020,03,30,17,14,6.90
2020,03,30,17,15,6.90
2020,03,30,17,16,6.90
2020,03,30,17,17,6.90
2020,03,30,17,18,6.90
2020,03,30,17,19,6.80
2020,03,30,17,20,6.90
2020,03,30,17,21,6.90
2020,03,30,17,22,7.00
2020,03,30,17,23,7.00
2020,03,30,17,24,7.10
2020,03,30,17,25,7.20
2020,03,30,17,26,7.20
2020,03,30,17,27,7.30
2020,03,30,17,28,7.40
2020,03,30,17,29,7.50
2020,03,30,17,30,7.60
2020,03,30,17,31,7.70
2020,03,30,17,32,7.70
2020,03,30,17,33,7.80
2020,03,30,17,34,7.80
2020,03,30,17,35,7.80
2020,03,30,17,36,7.80
2020,03,30,17,37,7.80
2020,03,30,17,38,7.80
2020,03,30,17,39,7.80
2020,03,30,17,40,7.80
2020,03,30,17,41,7.70
2020,03,30,17,42,7.70
2020,03,30,17,43,7.70
2020,03,30,17,44,7.70
2020,03,30,17,45,7.70
2020,03,30,17,46,7.70
2020,03,30,17,47,7.80
2020,03,30,17,48,7.80
2020,03,30,17,49,7.80
2020,03,30,17,50,7.80
2020,03,30,17,51,7.70
2020,03,30,17,52,7.60
2020,03,30,17,53,7.60
2020,03,30,17,54,7.60
2020,03,30,17,55,7.60
2020,03,30,17,56,7.50
2020,03,30,17,57,7.50
2020,03,30,17,58,7.60
2020,03,30,17,59,7.60
2020,03,30,18,00,7.70
2020,03,30,18,01,7.70
2020,03,30,18,02,7.70
2020,03,30,18,03,7.70
2020,03,30,18,04,7.60
2020,03,30,18,05,7.60
2020,03,30,18,06,7.50